Location: Villingen
(48.0639°N, 8.4609°E)
Time: 09:24:43
(UTC+01:00)

ISS - Pass Details

Date: 14 November 2017
Orbit: 402 x 407 km, 51.6° (Epoch: 21 November)

Event Time Altitude Azimuth Distance (km) Brightness Sun altitude
Exits shadow 05:45:16 58° 265° (W) 473 -3.9 -17.6°
Maximum altitude 05:45:44 72° 207° (SSW) 426 -3.9 -17.6°
Drops below altitude 10° 05:48:59 10° 122° (ESE) 1,451 0.0 -17.0°
Sets 05:51:03 0° 120° (ESE) 2,308 1.3 -16.7°
